AirNav   Duncan Aviation - Near you to keep you flying
 
 1343 users online  

XS90 Fentress Airpark
Fentress, Texas, USA

GOING TO FENTRESS?


FAA INFORMATION EFFECTIVE 16 JUNE 2022

Location

FAA Identifier: XS90
Lat/Long: 29-46-05.8090N 097-46-31.0040W
29-46.096817N 097-46.516733W
29.7682803,-97.7752789
(estimated)
Elevation: 460 ft. / 140 m (estimated)
Variation: 07E (1985)
From city: 1 mile N of FENTRESS, TX
Time zone: UTC -5 (UTC -6 during Standard Time)
Zip code: 78644

Airport Operations

Airport use: Private use. Permission required prior to landing
Activation date: 06/1991
Control tower: no
ARTCC: HOUSTON CENTER
FSS: SAN ANGELO FLIGHT SERVICE STATION
Attendance: CONTINUOUS
Wind indicator: yes
Segmented circle: no

Airport Communications

WX AWOS-3PT at HYI (9 nm NW): PHONE 512-353-8005
WX ASOS at BAZ (14 nm W): 119.325 (830-629-7979)

Airport Services

Runway Information

Runway 4/22

Dimensions: 3200 x 50 ft. / 975 x 15 m
Surface: asphalt
COMPACT BASE W/ TAR AND ASPH SFC.
RUNWAY 4  RUNWAY 22
Traffic pattern: leftleft

Airport Ownership and Management from official FAA records

Ownership: Privately-owned
Owner: PAUL ILLINGWORTH
PO BOX 337
FENTRESS, TX 78622
Phone 512-488-2214
Manager: PAUL ILLINGWORTH
PO BOX 337
FENTRESS, TX 78622
Phone 512-488-2214

Airport Operational Statistics

Aircraft based on the field: 2
Single engine airplanes: 2
    

Additional Remarks

SKYDIVING AND PAJA ON & INVOF ARPT DLY AND OCNL NIGHTS.
USED EXCLVLY FOR SKYDIVING OPS - NO UNAUTHORIZED USE IS PMTD.
FOR CD CTC AUSTIN APCH AT 512-269-7865.

Instrument Procedures

There are no published instrument procedures at XS90.

Some nearby airports with instrument procedures:

50R - Lockhart Municipal Airport (7 nm NE)
KHYI - San Marcos Regional Airport (9 nm NW)
KBAZ - New Braunfels National Airport (14 nm W)
KAUS - Austin-Bergstrom International Airport (26 nm N)
KRND - Randolph Air Force Base (30 nm SW)
 
Loc | Ops | Rwys | IFR | FBO | Links
Com | Nav | Svcs | Stats | Notes
Area around XS90 (Fentress Airpark)
 
Road maps at: MapQuest Bing Google
 
Aerial photo
WARNING: Photo may not be current or correct
Aerial photo of XS90 (Fentress Airpark)
Do you have a better or more recent aerial photo of Fentress Airpark that you would like to share? If so, please send us your photo.

 
Sectional chart

 
Airport distance calculator
Flying to Fentress Airpark? Find the distance to fly.

From to XS90

Sunrise and sunset
Times for 02-Jul-2022
 Local
(UTC-5)
 Zulu
(UTC)
Morning civil twilight06:0811:08
Sunrise06:3611:36
Sunset20:3501:35
Evening civil twilight21:0202:02

Current date and time
Zulu (UTC)  02-Jul-2022 21:35:03
Local (UTC-5)  02-Jul-2022 16:35:03
 
METAR
KHYI 
8nm NW 
022056Z 15010G15KT 10SM CLR 37/20 A2989 RMK AO2 SLP109 T03670200 56023
KSEQ 
14nm SW 
022056Z AUTO 16011KT 10SM FEW070 36/19 A2986 RMK AO2 SLP106 T03620191 57024 $
KBAZ 
15nm W 
022056Z 17011G19KT 10SM SCT070 38/19 A2986 RMK AO2 T03780194
TAF
NOTAMs
Click for the latest NOTAMs
NOTAMs are issued by the DoD/FAA and will open in a separate window not controlled by AirNav.

 

 
 

Would you like to see your business listed on this page?

 If your business provides an interesting product or service to pilots, flight crews, aircraft, or users of the Fentress Airpark, you should consider listing it here.  To start the listing process, click on the button below
 
Add a business
 

Other Pages about Fentress Airpark

Update a link
 
Copyright © AirNav, LLC. All rights reserved. Privacy Policy  Contact